Wind_Speed
26 26 29 33 35 43 47 50 57 62 68 74 82 86 74 61 48 39 43 37 46 52 52 50 32 13 19 17 19 33 57 57 51 44 57 69 62 60 55 50 48 47 50 50 51 39 56
27 25 28 32 35 41 48 50 57 61 67 73 80 86 78 60 49 41 40 40 46 54 52 48 31 12 15 17 18 23 48 55 54 46 54 68 62 58 54 50 48 49 48 49 49 45 42
30 28 29 33 35 41 47 50 55 58 65 70 78 85 78 59 50 42 38 41 49 54 52 46 29 14 11 13 15 18 37 52 55 46 50 66 59 59 55 50 47 49 47 47 54 50 40
28 29 29 32 35 41 46 49 54 56 63 69 76 83 79 58 49 41 38 43 47 51 50 47 26 14 6 11 11 11 26 48 47 45 51 59 56 55 54 52 47 49 48 47 49 45 45
28 29 30 32 34 42 44 47 51 54 60 67 73 81 82 60 45 40 37 41 47 48 47 47 27 9 6 5 9 9 19 42 37 50 49 52 49 55 54 52 47 43 42 39 49 42 42
28 30 31 32 36 41 42 44 47 53 59 66 72 79 81 61 43 39 36 41 47 47 46 46 31 7 6 3 8 7 19 38 47 54 44 52 55 52 54 53 49 44 35 38 41 46 45
27 28 30 31 35 39 40 43 44 51 57 63 70 76 80 68 44 37 36 38 46 46 45 46 36 6 3 2 4 9 18 36 46 49 43 49 48 40 53 52 47 42 39 32 38 38 45
27 27 29 31 34 37 38 40 41 48 53 61 67 73 79 72 46 35 35 34 44 46 44 45 37 13 3 4 5 7 19 37 45 44 39 49 51 39 49 51 47 42 38 39 33 37 36
25 26 26 28 33 33 34 37 40 45 50 57 65 68 77 74 47 32 31 32 41 46 42 43 36 23 6 5 3 9 26 36 42 38 39 42 38 27 41 53 47 41 35 32 30 32 33
23 23 23 27 29 29 32 35 38 43 47 55 62 68 74 73 52 34 28 31 36 42 40 38 39 27 13 10 15 23 21 36 38 37 40 46 39 29 36 49 46 38 34 28 29 28 30
22 20 19 22 26 28 32 33 36 41 45 52 59 65 71 74 56 33 26 27 31 40 38 36 34 38 12 15 14 22 21 36 38 39 40 44 44 26 36 41 44 38 32 26 25 27 24
20 19 17 18 25 28 30 33 35 40 41 47 55 62 69 72 60 41 25 23 27 35 31 37 28 34 20 8 13 17 19 31 41 39 39 46 39 26 35 39 39 35 32 29 26 28 25
20 18 16 18 23 29 29 32 36 37 39 43 51 58 65 70 62 46 24 20 22 28 34 33 31 32 24 4 11 18 17 30 41 38 38 48 38 25 30 32 34 34 33 33 30 27 23
19 20 17 17 21 25 29 29 33 34 36 41 47 55 61 68 66 51 26 19 17 20 28 28 25 29 34 32 31 25 23 33 37 35 32 40 34 23 30 29 30 37 35 34 33 30 20
18 18 18 18 18 22 26 28 32 31 34 39 45 52 58 64 66 58 34 18 12 15 19 23 22 19 23 24 29 38 26 21 23 27 29 31 30 25 22 25 30 32 36 37 34 30 22
18 18 18 18 16 20 23 25 31 30 33 38 43 49 54 60 64 62 40 20 10 9 12 16 18 19 19 12 12 12 17 17 16 23 25 26 22 27 23 24 25 28 30 32 32 29 25
19 18 16 15 14 16 18 23 28 31 34 37 42 47 53 58 64 63 47 25 9 5 6 9 12 14 18 14 8 7 6 8 9 26 25 25 27 25 25 23 22 28 30 31 30 29 28
20 17 14 12 10 10 17 22 27 32 35 36 40 44 51 55 63 65 52 33 15 4 1 3 5 8 11 10 2 4 3 5 10 7 8 18 24 24 22 19 19 22 27 30 31 31 29
22 16 13 9 9 8 13 22 27 32 35 37 39 41 47 53 59 64 57 30 18 6 5 3 1 3 4 6 8 6 4 12 12 16 16 19 22 21 21 24 22 25 26 28 30 30 30
22 16 12 9 4 7 14 22 27 31 33 35 39 39 45 51 54 61 58 34 18 10 6 9 7 4 2 4 5 7 7 4 15 11 14 18 21 24 23 23 27 27 25 27 28 32 31
21 18 14 13 10 12 14 23 25 30 34 35 39 40 43 46 49 58 59 42 18 10 6 10 13 11 9 6 4 5 7 11 13 16 19 21 22 22 23 25 28 30 32 34 34 34 35
22 19 19 16 13 14 16 19 23 28 33 36 38 40 43 44 45 52 57 45 20 12 3 10 14 16 14 12 9 7 6 7 11 16 18 20 22 23 22 23 24 25 29 32 35 36 40
23 23 24 22 19 18 21 16 21 25 31 38 38 38 41 43 45 49 53 49 29 14 7 9 15 14 17 16 14 12 11 10 11 13 15 16 20 22 23 25 26 23 24 27 29 32 34
30 24 25 21 19 18 15 16 21 24 31 36 37 35 38 41 43 46 49 48 33 16 11 8 13 15 16 17 17 16 15 13 14 14 15 15 17 18 16 19 21 18 19 20 21 21 25
35 28 25 21 17 12 13 18 25 28 32 34 35 31 34 38 40 43 46 45 35 16 11 11 11 17 16 20 18 17 17 15 15 15 15 17 17 16 16 16 17 17 17 18 18 20 24
38 32 27 22 19 17 16 20 26 27 30 36 26 29 31 34 37 39 43 43 38 24 14 11 11 12 17 17 24 22 21 19 19 17 16 17 17 17 17 16 15 13 17 18 20 21 23
40 36 32 26 23 20 20 25 27 27 32 28 24 26 28 31 33 34 39 39 37 32 17 12 11 12 14 20 19 24 24 24 24 21 20 20 20 18 19 19 15 16 16 18 21 20 20
41 37 33 28 30 27 26 29 30 30 34 29 25 23 25 29 30 32 36 37 37 35 25 17 12 12 13 19 23 21 22 25 23 23 22 23 22 20 20 20 18 17 18 19 19 20 20
38 38 36 34 35 33 31 33 33 33 39 31 22 19 22 25 26 29 32 35 35 34 31 22 15 14 15 17 21 24 20 20 23 24 26 25 25 24 23 21 22 20 18 18 19 20 19
Wind_Direction
305 314 324 333 338 344 351 353 358 2 360 357 353 353 358 354 346 345 350 350 352 348 349 351 345 270 246 242 255 225 213 215 207 205 214 202 202 205 206 206 209 207 204 206 210 214 215
304 310 322 332 338 344 348 354 357 1 0 358 354 352 358 356 348 347 353 356 353 352 353 354 350 325 235 237 252 234 214 212 211 192 208 198 198 203 204 204 209 210 207 215 217 211 209
303 308 315 327 336 343 349 355 356 0 0 359 355 353 357 356 349 349 351 354 354 353 356 358 350 342 253 236 244 236 213 209 215 192 203 204 198 200 201 202 206 211 213 212 214 211 217
302 308 320 328 331 341 347 353 354 359 1 359 356 355 360 356 350 350 352 356 355 355 358 2 355 339 355 231 238 231 211 205 211 190 198 202 196 198 200 202 204 210 211 215 212 206 218
301 308 318 328 331 339 347 353 355 360 1 360 357 356 359 357 350 350 354 359 357 355 359 6 0 348 359 190 217 211 205 198 191 189 191 197 202 197 197 201 204 207 209 212 213 212 204
296 306 317 325 333 340 346 352 358 1 2 1 358 356 359 358 352 347 350 358 1 356 358 9 5 353 337 229 225 233 199 190 195 198 182 193 196 199 197 200 205 204 207 210 212 218 217
295 302 314 324 332 340 345 352 358 2 2 1 358 358 1 2 353 347 350 357 3 357 358 6 8 350 308 305 257 235 198 186 190 198 183 188 188 201 201 198 204 211 208 213 215 218 220
293 302 312 323 332 339 344 353 358 1 2 0 359 357 360 6 356 348 351 355 3 360 360 6 9 1 307 326 303 216 195 178 184 192 180 182 183 189 199 200 203 207 210 215 218 220 222
291 299 311 322 330 339 343 353 358 1 1 1 0 356 358 8 1 348 350 356 2 1 2 10 14 11 13 345 133 133 150 171 177 180 173 173 170 173 195 199 202 207 209 211 219 221 228
288 298 310 322 329 342 343 352 359 1 359 360 1 357 356 5 3 351 347 359 1 3 7 12 22 22 50 71 114 155 146 163 172 170 171 177 175 178 193 197 202 202 207 212 214 218 225
284 295 312 323 329 337 339 351 359 1 359 1 1 358 355 3 7 353 353 357 1 6 12 16 9 23 72 104 111 124 149 162 161 170 169 171 174 190 198 198 200 201 205 209 214 217 220
281 286 303 317 325 329 337 347 356 357 360 1 2 359 357 360 11 4 350 358 4 8 16 24 20 18 52 122 116 151 139 159 170 162 170 167 170 176 185 196 200 201 204 210 211 215 219
275 278 291 310 321 324 333 343 352 356 360 359 2 358 358 358 7 6 352 354 3 8 17 25 34 37 41 107 174 167 149 160 160 161 171 177 180 174 190 193 196 202 202 207 214 214 215
270 275 284 303 317 323 335 341 352 356 1 0 0 357 358 358 2 11 354 348 3 12 19 34 46 58 66 84 96 122 130 143 157 163 173 178 178 175 191 204 203 205 206 211 212 216 212
266 269 279 295 312 321 332 341 351 357 1 2 2 357 358 357 360 9 2 345 350 18 22 40 56 74 64 76 106 99 87 111 150 171 182 176 183 182 186 188 201 207 210 214 216 218 211
262 268 275 292 307 317 332 343 353 4 2 3 3 359 358 359 357 5 8 348 334 9 20 35 70 100 102 88 71 87 64 83 165 172 186 191 183 188 199 198 207 211 208 214 218 220 220
260 266 272 288 305 317 342 349 2 8 3 3 1 359 360 359 357 2 12 357 326 330 26 29 57 117 135 122 75 73 55 108 114 175 191 192 203 196 201 208 217 217 216 216 217 222 222
258 262 264 281 300 330 353 356 3 6 5 0 358 360 1 359 357 358 12 6 342 309 313 46 43 81 142 164 160 117 181 207 173 177 148 197 199 197 196 209 215 218 217 221 226 226 229
255 257 254 263 289 331 347 355 359 2 8 1 357 359 0 359 358 355 7 10 352 285 233 200 156 94 100 132 167 171 186 214 207 190 174 178 191 201 214 221 218 223 225 229 233 234 228
249 245 239 238 289 331 347 353 1 2 5 1 359 355 357 358 1 357 3 12 1 346 242 216 209 209 218 145 146 184 194 200 202 200 178 196 209 219 225 223 224 225 230 229 232 229 230
243 233 218 225 276 304 331 341 357 3 5 3 360 354 354 358 1 359 358 9 8 358 243 223 214 218 226 224 187 186 207 207 202 205 211 211 210 224 233 234 235 241 241 240 238 246 243
243 236 223 236 276 297 320 334 351 0 2 2 357 351 352 356 357 1 357 5 10 353 309 230 224 221 224 226 224 223 214 216 221 225 218 216 218 223 226 239 242 247 251 251 250 251 252
249 246 239 246 262 295 311 329 341 351 354 354 353 350 351 354 353 2 360 0 5 358 337 245 231 226 224 228 236 237 238 233 227 222 224 228 234 236 242 249 248 248 250 249 249 252 252
242 252 251 255 262 285 310 328 331 337 343 344 347 346 348 352 352 359 1 360 1 358 341 323 255 238 230 229 233 241 245 251 247 245 239 232 236 243 242 249 248 248 250 244 242 243 244
237 251 257 260 269 278 310 330 334 340 341 343 342 342 346 349 352 358 3 3 1 354 342 320 299 249 240 235 232 233 240 246 251 251 249 248 249 251 254 251 256 251 255 256 250 245 242
237 246 255 264 264 281 307 324 332 338 341 337 336 339 346 346 354 0 4 6 1 357 336 323 307 275 246 251 243 240 242 243 246 248 249 246 250 255 257 257 258 257 258 254 254 253 260
234 244 252 260 268 279 295 315 323 334 340 339 335 339 342 348 355 3 7 6 2 354 342 322 308 288 259 248 250 244 242 246 247 248 251 251 255 260 261 260 259 264 264 263 262 262 260
237 241 249 256 264 278 289 304 311 323 330 330 331 332 340 346 355 3 8 11 4 354 348 331 316 292 268 255 249 249 245 245 248 247 253 256 259 262 263 264 264 263 262 265 267 265 259
236 239 247 255 264 274 286 293 301 311 321 325 321 328 341 348 355 2 8 13 11 356 348 336 318 297 268 258 253 247 246 248 249 254 253 255 259 261 264 264 264 263 262 263 266 266 260
Height
5812 5809 5806 5800 5794 5787 5779 5770 5761 5750 5738 5725 5709 5693 5679 5666 5655 5645 5636 5628 5619 5607 5593 5582 5570 5565 5567 5570 5573 5577 5588 5599 5611 5622 5634 5645 5659 5672 5682 5693 5704 5714 5721 5726 5734 5741 5751
5809 5804 5802 5797 5791 5784 5776 5767 5758 5746 5735 5722 5708 5692 5677 5663 5651 5642 5633 5624 5614 5603 5589 5577 5567 5563 5563 5565 5568 5570 5578 5591 5602 5616 5626 5638 5653 5666 5676 5687 5697 5706 5714 5721 5729 5738 5746
5806 5801 5797 5793 5788 5780 5773 5764 5755 5744 5733 5721 5706 5690 5673 5660 5649 5639 5630 5622 5611 5599 5587 5574 5565 5561 5560 5562 5564 5566 5572 5585 5597 5613 5623 5635 5646 5660 5672 5682 5691 5700 5707 5715 5722 5732 5738
5801 5797 5793 5789 5785 5778 5770 5762 5753 5742 5730 5718 5704 5689 5673 5658 5647 5637 5627 5620 5609 5597 5585 5573 5564 5560 5559 5560 5562 5565 5568 5582 5591 5608 5620 5632 5642 5655 5667 5676 5686 5694 5703 5711 5721 5729 5737
5797 5794 5790 5786 5781 5775 5767 5759 5751 5740 5729 5717 5703 5688 5672 5657 5647 5637 5627 5618 5608 5596 5584 5573 5564 5560 5559 5559 5560 5563 5567 5578 5589 5604 5617 5631 5642 5652 5662 5672 5680 5691 5701 5709 5718 5725 5731
5793 5790 5787 5782 5778 5772 5765 5756 5748 5737 5726 5715 5702 5687 5672 5656 5646 5636 5627 5618 5609 5597 5585 5574 5565 5562 5560 5559 5560 5561 5565 5574 5585 5600 5614 5626 5639 5649 5658 5668 5681 5690 5697 5704 5712 5721 5727
5788 5786 5784 5779 5775 5769 5762 5753 5745 5736 5725 5714 5701 5687 5671 5655 5645 5636 5628 5620 5612 5599 5587 5576 5567 5560 5559 5559 5559 5560 5563 5571 5583 5596 5612 5625 5638 5648 5661 5668 5678 5687 5696 5702 5710 5715 5719
5783 5782 5779 5776 5772 5766 5760 5751 5743 5734 5724 5712 5700 5687 5671 5657 5645 5637 5629 5620 5612 5603 5590 5578 5568 5561 5559 5558 5558 5558 5562 5571 5583 5596 5612 5624 5637 5647 5656 5666 5675 5682 5691 5699 5706 5711 5715
5778 5777 5775 5772 5768 5762 5757 5748 5741 5732 5723 5713 5701 5688 5673 5658 5644 5636 5629 5621 5613 5603 5592 5581 5570 5563 5560 5558 5557 5561 5565 5574 5587 5600 5615 5627 5642 5647 5654 5664 5673 5681 5690 5697 5703 5706 5709
5773 5772 5771 5767 5764 5759 5754 5745 5738 5730 5721 5711 5699 5686 5673 5660 5646 5636 5631 5623 5616 5606 5595 5585 5575 5567 5563 5560 5561 5565 5570 5579 5592 5604 5616 5629 5637 5646 5654 5663 5672 5680 5688 5694 5699 5705 5709
5768 5768 5766 5763 5759 5756 5750 5743 5735 5727 5719 5710 5698 5687 5674 5658 5645 5637 5632 5626 5619 5611 5600 5590 5581 5573 5569 5571 5572 5574 5579 5587 5597 5609 5620 5630 5640 5648 5654 5663 5670 5679 5685 5692 5697 5701 5705
5763 5763 5761 5759 5755 5752 5747 5740 5733 5726 5717 5708 5698 5688 5676 5661 5648 5637 5632 5627 5622 5615 5605 5597 5589 5581 5577 5578 5580 5581 5585 5592 5602 5614 5622 5632 5641 5648 5655 5661 5670 5677 5684 5690 5695 5699 5705
5758 5758 5757 5755 5751 5748 5743 5737 5730 5723 5716 5707 5698 5688 5678 5664 5652 5639 5632 5630 5626 5619 5613 5607 5598 5591 5585 5583 5583 5588 5593 5598 5608 5618 5625 5633 5643 5650 5656 5662 5669 5676 5682 5688 5694 5696 5699
5753 5754 5752 5751 5747 5744 5740 5735 5727 5720 5714 5705 5697 5689 5679 5665 5653 5642 5633 5632 5628 5623 5618 5613 5608 5603 5598 5593 5591 5596 5601 5609 5616 5624 5630 5637 5645 5650 5658 5663 5670 5675 5681 5686 5690 5693 5699
5746 5747 5747 5747 5743 5740 5737 5732 5724 5717 5711 5704 5696 5689 5680 5668 5654 5644 5635 5630 5629 5627 5624 5620 5616 5613 5611 5610 5609 5607 5615 5622 5626 5630 5634 5640 5647 5653 5658 5664 5668 5672 5677 5683 5687 5692 5696
5740 5741 5741 5742 5739 5736 5734 5729 5722 5714 5709 5702 5695 5688 5679 5670 5657 5646 5638 5631 5630 5628 5628 5625 5623 5621 5620 5618 5618 5620 5622 5626 5630 5634 5640 5644 5649 5653 5658 5663 5666 5670 5677 5680 5685 5689 5693
5734 5735 5735 5736 5734 5733 5729 5726 5718 5711 5706 5700 5694 5687 5678 5669 5658 5647 5639 5632 5629 5629 5630 5630 5627 5626 5625 5625 5625 5626 5627 5631 5634 5636 5641 5646 5650 5656 5659 5662 5666 5670 5673 5677 5681 5684 5687
5727 5729 5730 5730 5730 5728 5725 5722 5714 5708 5704 5699 5693 5687 5678 5670 5660 5647 5638 5631 5629 5629 5630 5631 5630 5629 5628 5628 5628 5630 5631 5631 5635 5639 5641 5644 5649 5654 5659 5662 5665 5667 5670 5673 5676 5682 5683
5721 5722 5724 5724 5725 5723 5721 5718 5710 5706 5701 5697 5692 5685 5677 5670 5661 5648 5638 5632 5629 5628 5629 5631 5632 5631 5630 5630 5631 5631 5632 5633 5634 5638 5642 5646 5650 5653 5657 5660 5661 5664 5668 5670 5673 5676 5678
5714 5716 5718 5718 5718 5718 5715 5713 5707 5703 5698 5694 5690 5684 5676 5669 5661 5649 5638 5631 5627 5626 5627 5629 5631 5631 5632 5632 5632 5631 5632 5633 5635 5637 5640 5645 5648 5651 5654 5656 5659 5660 5663 5665 5668 5669 5672
5707 5710 5711 5712 5711 5710 5710 5709 5703 5700 5695 5692 5688 5682 5676 5669 5660 5650 5639 5630 5626 5624 5624 5625 5626 5627 5630 5631 5631 5633 5633 5634 5636 5637 5639 5642 5647 5649 5650 5651 5654 5655 5657 5659 5661 5664 5664
5699 5702 5704 5705 5705 5704 5705 5704 5700 5696 5692 5688 5685 5680 5673 5667 5659 5649 5639 5630 5625 5622 5621 5622 5624 5625 5626 5628 5630 5630 5632 5634 5635 5637 5638 5639 5641 5644 5646 5648 5648 5650 5650 5652 5654 5655 5658
5692 5695 5697 5699 5700 5699 5699 5699 5696 5692 5688 5685 5682 5678 5672 5666 5658 5648 5639 5628 5623 5620 5620 5620 5621 5622 5624 5626 5629 5629 5630 5631 5633 5635 5636 5638 5639 5640 5643 5643 5643 5645 5645 5644 5647 5648 5650
5684 5687 5689 5693 5695 5695 5694 5692 5691 5688 5684 5681 5679 5675 5669 5664 5658 5648 5637 5628 5622 5620 5619 5619 5618 5619 5622 5623 5624 5627 5627 5628 5629 5631 5632 5634 5634 5635 5637 5637 5638 5640 5639 5640 5641 5642 5643
5676 5679 5682 5685 5687 5688 5687 5686 5685 5682 5680 5677 5675 5671 5666 5661 5655 5647 5637 5627 5621 5618 5617 5616 5616 5617 5618 5620 5621 5622 5624 5625 5625 5626 5628 5629 5630 5630 5631 5631 5634 5634 5635 5634 5635 5637 5637
5668 5671 5675 5678 5680 5681 5681 5681 5680 5678 5676 5673 5670 5667 5662 5658 5653 5646 5636 5627 5620 5616 5613 5613 5613 5612 5614 5615 5617 5617 5618 5620 5621 5623 5624 5624 5625 5626 5626 5627 5628 5629 5629 5629 5629 5631 5632
5660 5664 5668 5671 5673 5674 5674 5675 5675 5673 5672 5669 5667 5663 5660 5656 5651 5644 5636 5627 5620 5615 5612 5609 5609 5608 5609 5610 5610 5612 5613 5615 5616 5618 5619 5619 5620 5621 5621 5621 5624 5623 5624 5624 5624 5628 5626
5652 5655 5660 5663 5665 5667 5668 5668 5669 5668 5667 5665 5662 5659 5656 5653 5649 5642 5634 5627 5619 5614 5610 5606 5605 5604 5603 5602 5604 5606 5608 5609 5611 5613 5613 5613 5614 5615 5615 5615 5617 5617 5617 5618 5619 5619 5620
5644 5648 5652 5655 5657 5660 5661 5662 5662 5662 5661 5659 5657 5653 5651 5649 5645 5639 5632 5625 5619 5614 5607 5603 5602 5599 5598 5597 5599 5602 5603 5604 5605 5607 5607 5609 5609 5610 5611 5611 5610 5610 5611 5611 5612 5613 5614